FW0765 Weather Reports


Display with metric or nautical units.
time (UTC)temp
F
wind
direction
speed
MPH
gust
MPH
rain 1hr
in
rain 24hr
in
rain mn
in
humidity
%
barometer
mb
20260507090050 56 51 3.0 11.0 0.00 0.03 0.00 83 1017.6
20260507084553 56 49 4.0 10.0 0.00 0.03 0.00 83 1017.4
20260507083050 56 71 4.0 10.0 0.00 0.03 0.00 83 1017.6
20260507081645 57 80 4.0 11.0 0.00 0.03 0.00 84 1017.1
20260507080100 56 61 3.0 10.0 0.00 0.03 0.00 84 1017.0
20260507074545 56 46 5.0 10.0 0.00 0.03 0.00 85 1016.8
20260507073040 57 57 4.0 7.0 0.00 0.03 0.00 88 1016.9
20260507071553 57 67 3.0 9.0 0.00 0.03 0.00 89 1016.3
20260507070036 57 54 3.0 9.0 0.00 0.03 0.00 89 1016.1
20260507064533 56 58 1.0 3.0 0.00 0.03 0.00 89 1016.1
20260507063035 56 57 2.0 5.0 0.00 0.03 0.00 89 1015.7
20260507061532 56 58 3.0 6.0 0.00 0.03 0.00 88 1015.5
20260507060030 56 66 1.0 4.0 0.00 0.03 0.00 88 1015.6
20260507054528 56 62 1.0 5.0 0.00 0.03 0.00 88 1015.6
20260507053027 57 65 1.0 5.0 0.00 0.03 0.00 87 1016.0
20260507051526 57 59 1.0 6.0 0.00 0.03 0.00 87 1015.5
20260507050022 57 63 3.0 6.0 0.00 0.03 0.00 86 1015.3
20260507044521 58 128 0.0 2.0 0.00 0.03 0.03 85 1015.2
20260507043024 59 128 0.0 3.0 0.00 0.03 0.03 85 1015.2
20260507041517 59 128 1.0 4.0 0.00 0.03 0.03 84 1014.8
20260507040016 59 128 1.0 3.0 0.00 0.03 0.03 83 1014.6
20260507034515 59 128 1.0 3.0 0.00 0.03 0.03 82 1014.3
20260507033012 60 128 2.0 4.0 0.00 0.03 0.03 81 1014.2
20260507031510 60 128 2.0 3.0 0.00 0.03 0.03 80 1013.9
20260507030011 61 128 1.0 4.0 0.00 0.03 0.03 79 1013.6
20260507024507 62 126 2.0 5.0 0.00 0.03 0.03 77 1013.5
20260507023007 62 113 1.0 6.0 0.00 0.03 0.03 76 1013.1
20260507021511 63 110 1.0 7.0 0.00 0.03 0.03 74 1012.8
20260507020007 64 90 2.0 7.0 0.00 0.03 0.03 72 1012.5
20260507014505 65 115 2.0 7.0 0.00 0.03 0.03 70 1012.6
20260507013005 66 71 2.0 6.0 0.00 0.03 0.03 68 1012.4
20260507011504 67 92 3.0 5.0 0.00 0.03 0.03 66 1012.3
20260507010004 69 69 3.0 10.0 0.00 0.03 0.03 62 1012.0
20260507004503 70 64 4.0 10.0 0.00 0.03 0.03 60 1011.9
20260507003005 70 72 5.0 10.0 0.00 0.03 0.03 60 1011.9
20260507001501 71 65 3.0 10.0 0.00 0.03 0.03 58 1011.6
20260507000002 72 36 5.0 11.0 0.00 0.03 0.03 56 1011.4
20260506234606 72 88 5.0 9.0 0.00 0.03 0.03 58 1011.5
20260506233059 72 55 4.0 10.0 0.00 0.03 0.03 57 1011.4
20260506231559 72 84 5.0 9.0 0.00 0.03 0.03 57 1011.5
20260506230059 73 68 5.0 10.0 0.00 0.03 0.03 57 1011.4
20260506224558 73 54 1.0 9.0 0.00 0.03 0.03 56 1011.3
20260506223056 73 54 5.0 9.0 0.00 0.03 0.03 58 1011.1
20260506221555 73 82 3.0 10.0 0.00 0.03 0.03 58 1011.1
20260506220106 73 46 2.0 9.0 0.00 0.03 0.03 59 1011.1
20260506214553 72 39 4.0 12.0 0.00 0.03 0.03 60 1011.1
20260506213055 71 74 2.0 9.0 0.00 0.03 0.03 62 1011.2
20260506211548 70 78 3.0 8.0 0.00 0.03 0.03 63 1011.6
20260506210048 69 41 5.0 10.0 0.00 0.03 0.03 65 1011.5
20260506204543 68 38 6.0 11.0 0.00 0.03 0.03 66 1011.4
20260506203119 67 51 7.0 10.0 0.00 0.03 0.03 69 1011.8
20260506201546 65 34 5.0 9.0 0.00 0.03 0.03 71 1012.0
20260506200047 64 49 5.0 10.0 0.00 0.03 0.03 72 1012.6
20260506194640 63 53 4.0 9.0 0.00 0.03 0.03 75 1012.6
20260506193039 62 84 4.0 10.0 0.00 0.03 0.03 76 1012.6
20260506191538 61 82 4.0 9.0 0.00 0.03 0.03 78 1012.9
20260506190046 60 73 4.0 9.0 0.00 0.03 0.03 79 1013.2
20260506184545 60 105 4.0 10.0 0.00 0.03 0.03 79 1013.0
20260506183036 60 106 5.0 11.0 0.00 0.03 0.03 78 1013.2
20260506181538 60 36 7.0 12.0 0.00 0.03 0.03 78 1013.3
20260506180037 60 38 6.0 11.0 0.00 0.03 0.03 79 1013.4
20260506174534 60 45 6.0 13.0 0.00 0.03 0.03 78 1013.4
20260506173044 59 45 6.0 12.0 0.00 0.03 0.03 78 1013.5
20260506171536 59 69 6.0 11.0 0.00 0.03 0.03 79 1013.5
20260506170031 58 47 6.0 13.0 0.00 0.03 0.03 80 1013.4
20260506164530 57 43 7.0 12.0 0.00 0.03 0.03 81 1013.1
20260506163047 57 61 8.0 13.0 0.00 0.03 0.03 82 1013.1
20260506161528 56 36 7.0 11.0 0.00 0.03 0.03 84 1012.8
20260506160025 56 30 6.0 12.0 0.00 0.03 0.03 85 1012.7
20260506154531 55 42 5.0 11.0 0.00 0.03 0.03 86 1012.6
20260506153027 54 38 4.0 9.0 0.00 0.03 0.03 88 1012.2
20260506151521 54 54 5.0 11.0 0.00 0.03 0.03 89 1012.3
20260506150019 53 29 7.0 15.0 0.00 0.03 0.03 90 1012.0
20260506144517 53 41 10.0 15.0 0.00 0.03 0.03 90 1011.5
20260506143015 52 5 6.0 16.0 0.01 0.03 0.03 90 1012.0
20260506141513 52 43 11.0 16.0 0.02 0.03 0.03 90 1011.4
20260506140018 52 49 6.0 13.0 0.02 0.03 0.03 90 1011.0
20260506134510 52 49 6.0 12.0 0.02 0.03 0.03 89 1011.0
20260506133109 53 51 7.0 14.0 0.02 0.02 0.02 88 1011.3
20260506131508 53 37 5.0 11.0 0.01 0.01 0.01 88 1010.5
20260506130003 53 81 6.0 14.0 0.01 0.01 0.01 86 1010.2
20260506124601 54 75 8.0 17.0 0.01 0.01 0.01 84 1009.4
20260506123110 55 38 6.0 12.0 0.00 0.00 0.00 83 1010.8
20260506121608 55 63 3.0 12.0 0.00 0.00 0.00 82 1010.3
20260506120052 55 52 6.0 15.0 0.00 0.00 0.00 82 1009.1
20260506114549 55 21 6.0 14.0 0.00 0.00 0.00 81 1010.4
20260506113047 55 84 4.0 11.0 0.00 0.00 0.00 81 1009.2
20260506111546 55 85 6.0 12.0 0.00 0.00 0.00 81 1008.9
20260506110045 55 71 4.0 12.0 0.00 0.00 0.00 81 1009.1
20260506104540 56 40 8.0 13.0 0.00 0.00 0.00 80 1008.5
20260506103037 56 65 7.0 13.0 0.00 0.00 0.00 79 1008.1
20260506101534 57 63 8.0 13.0 0.00 0.00 0.00 79 1008.3
20260506100031 58 45 5.0 12.0 0.00 0.00 0.00 79 1008.1
20260506094528 59 36 3.0 9.0 0.00 0.00 0.00 79 1008.0
20260506093025 59 62 5.0 9.0 0.00 0.00 0.00 79 1007.7
20260506091523 59 57 5.0 10.0 0.00 0.00 0.00 79 1007.4